EW5926 Weather Reports


time (UTC)temp
C
wind
direction
speed
KPH
gust
KPH
rain 1hr
cm
rain 24hr
cm
rain mn
cm
humidity
%
barometer
mb
20260505161600 25 24 3.2 9.7 0.00 0.00 0.00 81 1006.9
20260505153104 25 358 1.6 4.8 0.00 0.00 0.00 72 1006.4
20260505151554 26 3 1.6 4.8 0.00 0.00 0.00 71 1006.3
20260505124546 30 352 0.0 6.4 0.00 0.00 0.00 54 1006.5
20260505123053 30 20 1.6 6.4 0.00 0.00 0.00 55 1006.6
20260505121542 30 206 1.6 6.4 0.00 0.00 0.00 55 1006.7
20260505120052 30 327 0.0 11.3 0.00 0.00 0.00 57 1006.8
20260505114539 30 15 4.8 16.1 0.00 0.00 0.00 58 1006.9
20260505113036 30 193 0.0 4.8 0.00 0.00 0.00 57 1007.2
20260505111535 30 98 1.6 4.8 0.00 0.00 0.00 57 1007.6
20260505101521 28 340 0.0 14.5 0.00 0.00 0.00 61 1008.8
20260505100022 28 17 3.2 11.3 0.00 0.00 0.00 63 1009.2
20260505094517 27 6 4.8 12.9 0.00 0.00 0.00 65 1009.7
20260505093010 27 16 0.0 12.9 0.00 0.00 0.00 67 1009.9
20260505091510 27 6 0.0 6.4 0.00 0.00 0.00 68 1010.3
20260505090002 27 17 4.8 12.9 0.00 0.00 0.00 68 1010.8
20260505084615 26 82 0.0 4.8 0.00 0.00 0.00 66 1011.3
20260505083107 26 352 0.0 4.8 0.00 0.00 0.00 70 1011.3
20260505081559 25 243 1.6 6.4 0.00 0.00 0.00 72 1011.6
20260505080057 24 190 1.6 9.7 0.00 0.00 0.00 73 1011.7
20260505074542 24 219 4.8 9.7 0.00 0.00 0.00 73 1012.1
20260505073050 23 194 0.0 3.2 0.00 0.00 0.00 77 1012.0
20260505071544 22 236 0.0 4.8 0.00 0.00 0.00 79 1012.4
20260505070039 21 196 3.2 9.7 0.00 0.00 0.00 84 1012.4
20260505064525 21 193 4.8 12.9 0.00 0.00 0.00 87 1012.3
20260505063027 20 185 4.8 11.3 0.00 0.00 0.00 89 1012.3
20260505061526 20 179 4.8 11.3 0.00 0.00 0.00 92 1012.3
20260505060024 18 152 4.8 8.0 0.00 0.00 0.00 95 1012.2
20260505054513 18 172 3.2 4.8 0.00 0.00 0.00 97 1012.2
20260505053010 17 154 0.0 0.0 0.00 0.00 0.00 98 1012.3
20260505051511 17 170 0.0 0.0 0.00 0.00 0.00 97 1012.2
20260505041605 16 157 0.0 0.0 0.00 0.00 0.00 97 1012.0
20260505040059 16 157 0.0 0.0 0.00 0.00 0.00 97 1011.9
20260505034558 16 157 0.0 0.0 0.00 0.00 0.00 96 1012.0
20260505033057 16 157 0.0 0.0 0.00 0.00 0.00 96 1011.9
20260505031555 16 157 0.0 0.0 0.00 0.00 0.00 96 1011.8
20260505030111 16 157 0.0 0.0 0.00 0.00 0.00 96 1011.7
20260505024559 17 107 0.0 0.0 0.00 0.00 0.00 96 1011.7
20260505023054 16 107 0.0 0.0 0.00 0.00 0.00 96 1011.7
20260505021552 17 107 0.0 0.0 0.00 0.00 0.00 96 1011.5
20260505020051 17 107 0.0 0.0 0.00 0.00 0.00 96 1011.5
20260505014606 17 107 0.0 0.0 0.00 0.00 0.00 96 1011.5
20260505013052 17 107 0.0 0.0 0.00 0.00 0.00 96 1011.8
20260505011547 17 107 0.0 0.0 0.00 0.00 0.00 96 1011.9
20260505010054 17 107 0.0 3.2 0.00 0.00 0.00 95 1011.9
20260505004550 17 107 0.0 1.6 0.00 0.00 0.00 95 1012.0
20260505003054 17 179 0.0 3.2 0.00 0.00 0.00 95 1012.0
20260505001542 17 179 0.0 1.6 0.00 0.00 0.00 95 1012.3
20260505000038 17 179 0.0 0.0 0.00 0.00 0.00 95 1012.5
20260504234536 17 179 0.0 4.8 0.00 0.00 0.00 94 1012.6
20260504233037 18 202 0.0 3.2 0.00 0.00 0.00 94 1012.6
20260504231533 18 202 0.0 0.0 0.00 0.00 0.00 94 1012.5
20260504230030 18 202 0.0 0.0 0.00 0.00 0.00 94 1012.6
20260504224528 18 202 0.0 1.6 0.00 0.03 0.00 93 1012.8
20260504223032 18 202 0.0 0.0 0.00 0.03 0.00 93 1013.0
20260504221524 18 202 0.0 1.6 0.00 0.03 0.00 93 1013.2
20260504220023 19 202 0.0 3.2 0.00 0.03 0.00 92 1013.3
20260504214523 19 182 0.0 0.0 0.00 0.03 0.00 92 1013.4
20260504213026 19 182 0.0 4.8 0.00 0.03 0.00 92 1013.6
20260504211532 19 183 4.8 9.7 0.00 0.03 0.00 91 1013.7
20260504210019 19 181 3.2 6.4 0.00 0.03 0.00 92 1013.7
20260504204519 20 163 0.0 1.6 0.00 0.13 0.00 90 1013.7
20260504203016 20 92 0.0 3.2 0.00 0.13 0.00 90 1013.6
20260504194523 21 122 0.0 1.6 0.00 0.13 0.00 87 1013.8
20260504184622 23 144 0.0 3.2 0.00 0.15 0.00 80 1013.8
20260504183009 23 54 1.6 8.0 0.00 0.15 0.00 75 1013.7
20260504181605 23 4 3.2 6.4 0.00 0.15 0.00 75 1013.9
20260504180005 23 41 3.2 6.4 0.00 0.15 0.00 79 1013.8
20260504174502 23 35 1.6 4.8 0.00 0.15 0.00 80 1013.6
20260504173001 23 344 0.0 3.2 0.00 0.15 0.00 78 1013.6
20260504171501 24 28 0.0 4.8 0.00 0.15 0.00 75 1013.5